Location: Croissy-Beaubourg
(48.8283°N, 2.6696°E)
Time: 21:46:17
(UTC+00:00)

Cosmos 1356 - Pass Details

Date: 16 October 2021
Orbit: 432 x 436 km, 81.1° (Epoch: 07 December)

Event Time Altitude Azimuth Distance (km) Brightness Sun altitude
Rises 17:46:50 0° 347° (NNW) 2,436 7.3 -8.9°
Reaches altitude 10° 17:48:54 10° 346° (NNW) 1,562 6.3 -9.2°
Maximum altitude 17:52:18 78° 260° (W) 456 3.5 -9.8°
Drops below altitude 10° 17:55:41 10° 174° (S) 1,550 6.1 -10.3°
Sets 17:57:43 0° 173° (S) 2,414 7.1 -10.6°
